Regional Weather Roundup
Issued by NWS

Home | Current Version | Previous Version | Graphics & Text | Print | Product List | Glossary On
Versions: 1 2 3 4 5 6 7 8 9 10 11 12 13 14 15 16 17 18 19 20 21 22 23 24 25 26 27 28 29 30 31 32 33 34 35 36 37 38 39 40 41 42 43 44 45 46 47 48 49 50
000
ASUS43 KOAX 030102
RWRNE

WEATHER ROUNDUP FOR NEBRASKA
NATIONAL WEATHER SERVICE OMAHA NE
800 PM CDT THU JUL 02 2015

NOTES: SATELLITE DATA IS BEING USED TO AUGMENT CLOUD COVER ABOVE
       12000 FEET.
       "FAIR" INDICATES FEW OR NO CLOUDS BELOW 12,000 FEET WITH NO
       SIGNIFICANT WEATHER AND/OR OBSTRUCTIONS TO VISIBILITY.

  * THESE STATIONS DO NOT REPORT WEATHER SUCH AS RAIN...SNOW OR FOG.

NEZ001>004-019>022-054>056-030200-
NEBRASKA PANHANDLE

CITY           SKY/WX    TMP DP  RH WIND       PRES   REMARKS
SCOTTSBLUFF    SUNNY     81  54  39 N13       30.08S
ALLIANCE       MOSUNNY   76  60  57 N9        30.07S
CHADRON        MOSUNNY   77  60  55 NE10      30.06S
KIMBALL          N/A    N/A N/A N/A MISG        N/A
SIDNEY         SUNNY     79  55  43 NE7       30.11S
$$

NEZ057>060-069>072-079>082-030200-
SOUTHWEST NEBRASKA

CITY           SKY/WX    TMP DP  RH WIND       PRES   REMARKS
NORTH PLATTE   SUNNY     79  57  46 N9        30.01R
IMPERIAL       SUNNY     81  59  47 N8        30.04R
LEXINGTON      SUNNY     80  58  47 N10       29.97S
MCCOOK         SUNNY     82  59  45 N14       29.98R
$$

NEZ005>010-023>029-035>040-094-030200-
NORTH CENTRAL NEBRASKA

CITY           SKY/WX    TMP DP  RH WIND       PRES   REMARKS
VALENTINE      MOSUNNY   76  60  57 NE10      30.00S
AINSWORTH      MOSUNNY   75  59  56 N12       30.01R
BROKEN BOW     SUNNY     78  61  55 N9        29.97R
O`NEILL        PTSUNNY   70  65  85 E9        29.99R
ORD            MOSUNNY   74  64  71 NE10      29.95R
$$

NEZ041-046>049-061>064-073>077-083>087-030200-
SOUTH CENTRAL NEBRASKA

CITY           SKY/WX    TMP DP  RH WIND       PRES   REMARKS
GRAND ISLAND   SUNNY     73  66  78 NE13      29.95R
AURORA         MOSUNNY   71  69  92 NW5       29.92S
HASTINGS       MOSUNNY   72  65  78 E10       29.94R
KEARNEY *      MOSUNNY   77  61  57 N16       29.95R
$$

NEZ011>018-030>034-042>045-030200-
NORTHEAST NEBRASKA

CITY           SKY/WX    TMP DP  RH WIND       PRES   REMARKS
NORFOLK        CLOUDY    66  63  90 E6        29.97S FOG
BLAIR          CLOUDY    68  62  82 E6        29.95S
COLUMBUS *     CLOUDY    66  61  82 NE15      29.93F
FREMONT        MOCLDY    69  63  82 NE6       29.96R
TEKAMAH        CLOUDY    70  62  76 E8        29.95S
$$

NEZ050>053-065>068-078-088>093-030200-
SOUTHEAST NEBRASKA

CITY           SKY/WX    TMP DP  RH WIND       PRES   REMARKS
LINCOLN        CLOUDY    71  65  81 E10       29.92S
OMAHA EPPLEY   CLOUDY    70  62  76 E5        29.94S
FALLS CITY     CLOUDY    70  67  90 E7        29.90F
PLATTSMOUTH    MOCLDY    69  64  85 E5        29.94S
$$

NEZ044-045-051>053-067-030200-
OMAHA AREA

CITY           SKY/WX    TMP DP  RH WIND       PRES   REMARKS
OMAHA EPPLEY   CLOUDY    70  62  76 E5        29.94S
BLAIR          CLOUDY    68  62  82 E6        29.95S
FREMONT        MOCLDY    69  63  82 NE6       29.96R
MILLARD        MOCLDY    70  63  77 E3        29.94S
OFFUTT AFB     MOCLDY    70  64  80 E6        29.93S
PLATTSMOUTH    MOCLDY    69  64  85 E5        29.94S
$$



USA.gov is the U.S. government's official web portal to all federal, state and local government web resources and services.